User: anonymous   Login
Location: Unspecified
(0.0000°N, 0.0000°E)
Time: 13:29:38
(UTC+00:00)
Language:

Landsat 7 - Orbit

View from above orbital plane
View from above orbital plane
View from above satellite
View from above satellite

Ground track
Ground track

The orbit data is extracted from the following two-line orbital elements,

1 25682U 99020A   15187.15812343  .00000154  00000-0  44321-4 0  9990
2 25682 098.2161 256.8303 0001181 087.1098 273.0252 14.57103370862900
Epoch (UTC): 06 July 2015 03:47:41
Eccentricity: 0.0001181
inclination: 98.2161°
perigee height: 702 km
apogee height: 703 km
right ascension of ascending node: 256.8303°
argument of perigee: 87.1098°
revolutions per day: 14.57103370
mean anomaly at epoch: 273.0252°
orbit number at epoch: 86290

The dashed part of the orbit path shows where the satellite is in the earth's shadow,  

DLR